ARG1827 SACO-SAVC

Flight info

Callsign ARG1827
Flight time N/A
Altitude 35000
Route SIMES1G SIMES UT700 TRE UP664 GATUD GATUD2U
Aircraft B738/M-SDE2E3FGHIRWXY/LB1

Departure

Time 2026-05-09 14:09
Airport Ingeniero Aeronáutico Ambrosio L.V. Taravella International Airport (SACO)

Arrival

Time N/A
Airport General Enrique Mosconi International Airport (SAVC)
Time Latitude Longitude Altitude Speed Heading
2026-05-09 13:16 -31.31552 -64.21168 1612 ft 0 kts 259°
2026-05-09 13:57 -31.31548 -64.21142 1612 ft 4 kts 265°
2026-05-09 13:57 -31.31548 -64.21111 1612 ft 4 kts 282°
2026-05-09 13:57 -31.31559 -64.21085 1612 ft 4 kts 329°
2026-05-09 13:58 -31.31568 -64.21080 1612 ft 1 kts
2026-05-09 14:01 -31.31565 -64.21080 1612 ft 3 kts
2026-05-09 14:01 -31.31517 -64.21073 1612 ft 10 kts 17°
2026-05-09 14:02 -31.31470 -64.21020 1612 ft 10 kts 69°
2026-05-09 14:02 -31.31466 -64.20954 1612 ft 0 kts 89°
2026-05-09 14:03 -31.31466 -64.20930 1619 ft 9 kts 89°
2026-05-09 14:03 -31.31416 -64.20834 1620 ft 20 kts 13°
2026-05-09 14:04 -31.31275 -64.20831 1615 ft 20 kts 359°
2026-05-09 14:04 -31.31131 -64.20834 1615 ft 22 kts 359°
2026-05-09 14:04 -31.30966 -64.20836 1617 ft 24 kts 359°
2026-05-09 14:04 -31.30806 -64.20838 1619 ft 23 kts 359°
2026-05-09 14:05 -31.30650 -64.20841 1620 ft 22 kts 359°
2026-05-09 14:05 -31.30499 -64.20843 1612 ft 21 kts 359°
2026-05-09 14:05 -31.30353 -64.20845 1613 ft 21 kts 359°
2026-05-09 14:05 -31.30210 -64.20848 1613 ft 20 kts 359°
2026-05-09 14:06 -31.30074 -64.20849 1613 ft 20 kts 359°
2026-05-09 14:06 -31.29941 -64.20852 1618 ft 19 kts 359°
2026-05-09 14:06 -31.29811 -64.20854 1612 ft 18 kts 359°
2026-05-09 14:06 -31.29703 -64.20857 1613 ft 12 kts 347°
2026-05-09 14:07 -31.29624 -64.20895 1613 ft 12 kts 350°
2026-05-09 14:07 -31.29609 -64.20861 1618 ft 6 kts 144°
2026-05-09 14:07 -31.29648 -64.20857 1618 ft 6 kts 179°
2026-05-09 14:07 -31.29686 -64.20856 1611 ft 5 kts 179°
2026-05-09 14:08 -31.29739 -64.20855 1617 ft 23 kts 179°
2026-05-09 14:08 -31.30186 -64.20848 1618 ft 104 kts 179°
2026-05-09 14:08 -31.31149 -64.20833 1618 ft 171 kts 179°
2026-05-09 14:08 -31.32451 -64.20804 2130 ft 194 kts 179°
2026-05-09 14:09 -31.33778 -64.20530 3105 ft 193 kts 150°
2026-05-09 14:09 -31.34761 -64.19488 4130 ft 193 kts 137°
2026-05-09 14:09 -31.35720 -64.18352 4740 ft 198 kts 143°
2026-05-09 14:09 -31.36710 -64.17226 5245 ft 202 kts 144°
2026-05-09 14:10 -31.38866 -64.14938 6104 ft 217 kts 146°
2026-05-09 14:10 -31.40000 -64.13768 6696 ft 219 kts 146°
2026-05-09 14:10 -31.41156 -64.12577 7220 ft 223 kts 146°
2026-05-09 14:11 -31.42323 -64.11375 7769 ft 225 kts 146°
2026-05-09 14:11 -31.43513 -64.10149 8301 ft 228 kts 146°
2026-05-09 14:11 -31.44713 -64.08912 8827 ft 232 kts 145°
2026-05-09 14:11 -31.45520 -64.08082 9168 ft 236 kts 144°
2026-05-09 14:12 -31.47034 -64.06015 9561 ft 268 kts 131°
2026-05-09 14:12 -31.47743 -64.04794 9825 ft 278 kts 130°
2026-05-09 14:12 -31.48838 -64.02884 10289 ft 290 kts 131°
2026-05-09 14:12 -31.50029 -64.00860 10439 ft 312 kts 131°
2026-05-09 14:13 -31.51321 -63.98706 10608 ft 333 kts 131°
2026-05-09 14:14 -31.65118 -63.86627 14120 ft 369 kts 152°
2026-05-09 14:15 -31.67264 -63.85010 14694 ft 372 kts 152°
2026-05-09 14:15 -31.69481 -63.83344 15260 ft 375 kts 152°
2026-05-09 14:15 -31.71662 -63.81705 15836 ft 378 kts 152°
2026-05-09 14:15 -31.73885 -63.80033 16414 ft 380 kts 152°
2026-05-09 14:16 -31.76127 -63.78349 16947 ft 383 kts 151°
2026-05-09 14:16 -31.78375 -63.76660 17468 ft 385 kts 151°
2026-05-09 14:16 -31.80642 -63.74955 17988 ft 388 kts 151°
2026-05-09 14:16 -31.82925 -63.73237 18493 ft 391 kts 151°
2026-05-09 14:17 -31.85222 -63.71507 18980 ft 393 kts 151°
2026-05-09 14:17 -31.87529 -63.69769 19491 ft 395 kts 151°
2026-05-09 14:17 -31.89851 -63.68019 19990 ft 396 kts 150°
2026-05-09 14:17 -31.92179 -63.66262 20454 ft 399 kts 150°
2026-05-09 14:18 -31.94517 -63.64498 20906 ft 401 kts 150°
2026-05-09 14:18 -31.96867 -63.62723 21359 ft 403 kts 150°
2026-05-09 14:18 -31.99245 -63.60927 21769 ft 405 kts 150°
2026-05-09 14:18 -32.01621 -63.59131 22160 ft 407 kts 150°
2026-05-09 14:19 -32.04049 -63.57510 22567 ft 406 kts 161°
2026-05-09 14:19 -32.06777 -63.56792 23027 ft 402 kts 177°
2026-05-09 14:19 -32.09569 -63.56957 23412 ft 403 kts 187°
2026-05-09 14:19 -32.12361 -63.57401 23733 ft 406 kts 187°
2026-05-09 14:20 -32.15166 -63.57851 24042 ft 409 kts 187°
2026-05-09 14:20 -32.18001 -63.58301 24359 ft 411 kts 187°
2026-05-09 14:20 -32.20842 -63.58744 24693 ft 413 kts 187°
2026-05-09 14:21 -32.26566 -63.59616 25325 ft 417 kts 187°
2026-05-09 14:21 -32.29454 -63.60049 25611 ft 419 kts 187°
2026-05-09 14:21 -32.32355 -63.60482 25915 ft 421 kts 187°
2026-05-09 14:21 -32.35269 -63.60917 26203 ft 423 kts 186°
2026-05-09 14:22 -32.38190 -63.61352 26471 ft 424 kts 186°
2026-05-09 14:22 -32.41124 -63.61789 26733 ft 426 kts 186°
2026-05-09 14:22 -32.44082 -63.62230 26999 ft 428 kts 186°
2026-05-09 14:22 -32.47043 -63.62673 27254 ft 430 kts 186°
2026-05-09 14:23 -32.49980 -63.63114 27505 ft 431 kts 186°
2026-05-09 14:23 -32.52960 -63.63561 27752 ft 433 kts 186°
2026-05-09 14:23 -32.55962 -63.64010 27984 ft 435 kts 186°
2026-05-09 14:23 -32.58966 -63.64459 28213 ft 436 kts 186°
2026-05-09 14:24 -32.61985 -63.64911 28442 ft 437 kts 186°
2026-05-09 14:24 -32.65002 -63.65364 28724 ft 437 kts 186°
2026-05-09 14:24 -32.68009 -63.65816 29060 ft 435 kts 186°
2026-05-09 14:24 -32.71013 -63.66267 29390 ft 434 kts 186°
2026-05-09 14:25 -32.74008 -63.66717 29704 ft 433 kts 186°
2026-05-09 14:25 -32.76993 -63.67167 29971 ft 433 kts 186°
2026-05-09 14:25 -32.79979 -63.67616 30234 ft 433 kts 186°
2026-05-09 14:25 -32.82950 -63.68063 30747 ft 425 kts 186°
2026-05-09 14:26 -32.85838 -63.68499 31597 ft 411 kts 187°
2026-05-09 14:26 -32.88634 -63.68921 32306 ft 400 kts 187°
2026-05-09 14:26 -32.91400 -63.69338 32553 ft 402 kts 187°
2026-05-09 14:26 -32.94185 -63.69759 32642 ft 406 kts 187°
2026-05-09 14:27 -32.96963 -63.70178 32814 ft 408 kts 187°
2026-05-09 14:27 -32.99781 -63.70604 33032 ft 409 kts 187°
2026-05-09 14:27 -33.02600 -63.71031 33273 ft 409 kts 187°
2026-05-09 14:27 -33.05433 -63.71463 33453 ft 410 kts 187°
2026-05-09 14:28 -33.08273 -63.71893 33631 ft 412 kts 187°
2026-05-09 14:28 -33.11122 -63.72323 33835 ft 412 kts 187°
2026-05-09 14:28 -33.13969 -63.72754 34031 ft 413 kts 187°
2026-05-09 14:28 -33.16822 -63.73187 34192 ft 414 kts 187°
2026-05-09 14:29 -33.19690 -63.73623 34341 ft 416 kts 187°
2026-05-09 14:29 -33.22558 -63.74059 34453 ft 418 kts 187°
2026-05-09 14:29 -33.25450 -63.74496 34604 ft 419 kts 187°
2026-05-09 14:29 -33.28336 -63.74935 34827 ft 418 kts 187°
2026-05-09 14:30 -33.31221 -63.75375 35009 ft 418 kts 187°
2026-05-09 14:30 -33.34114 -63.75817 35169 ft 419 kts 187°
2026-05-09 14:30 -33.37007 -63.76258 35311 ft 419 kts 187°
2026-05-09 14:30 -33.39919 -63.76703 35307 ft 423 kts 187°
2026-05-09 14:31 -33.45739 -63.77595 35318 ft 424 kts 187°
2026-05-09 14:31 -33.51587 -63.78490 35323 ft 422 kts 187°
2026-05-09 14:32 -33.57401 -63.79379 35322 ft 420 kts 187°
2026-05-09 14:32 -33.63188 -63.80269 35317 ft 419 kts 187°
2026-05-09 14:33 -33.68955 -63.81153 35323 ft 417 kts 187°
2026-05-09 14:33 -33.74705 -63.82036 35326 ft 416 kts 187°
2026-05-09 14:34 -33.80427 -63.82917 35315 ft 416 kts 187°
2026-05-09 14:34 -33.86170 -63.83803 35308 ft 416 kts 187°
2026-05-09 14:35 -33.91918 -63.84691 35307 ft 416 kts 186°
2026-05-09 14:35 -33.97664 -63.85580 35301 ft 416 kts 187°
2026-05-09 14:36 -34.03414 -63.86471 35303 ft 416 kts 186°
2026-05-09 14:36 -34.09163 -63.87361 35304 ft 416 kts 186°
2026-05-09 14:37 -34.14915 -63.88252 35306 ft 417 kts 187°
2026-05-09 14:37 -34.20649 -63.89142 35294 ft 418 kts 186°
2026-05-09 14:38 -34.26414 -63.90038 35295 ft 418 kts 186°
2026-05-09 14:38 -34.32195 -63.90939 35292 ft 418 kts 187°
2026-05-09 14:39 -34.37973 -63.91838 35295 ft 418 kts 186°
2026-05-09 14:39 -34.43760 -63.92745 35299 ft 419 kts 187°
2026-05-09 14:40 -34.49515 -63.93649 35294 ft 420 kts 186°
2026-05-09 14:40 -34.55316 -63.94559 35289 ft 420 kts 186°
2026-05-09 14:41 -34.61113 -63.95471 35288 ft 420 kts 186°
2026-05-09 14:41 -34.66919 -63.96384 35284 ft 420 kts 186°
2026-05-09 14:42 -34.72718 -63.97298 35283 ft 420 kts 186°
2026-05-09 14:42 -34.78479 -63.98207 35281 ft 420 kts 186°
2026-05-09 14:43 -34.84261 -63.99121 35284 ft 419 kts 186°
2026-05-09 14:43 -34.90031 -64.00035 35274 ft 415 kts 186°
2026-05-09 14:44 -34.95765 -64.00931 35298 ft 415 kts 187°
2026-05-09 14:44 -35.01476 -64.01991 35288 ft 414 kts 186°
2026-05-09 14:45 -35.07202 -64.02754 35323 ft 411 kts 186°
2026-05-09 14:45 -35.12863 -64.03636 35327 ft 407 kts 186°
2026-05-09 14:46 -35.18484 -64.04531 35311 ft 407 kts 186°
2026-05-09 14:46 -35.24107 -64.05542 35293 ft 407 kts 186°
2026-05-09 14:47 -35.29686 -64.06415 35285 ft 403 kts 187°
2026-05-09 14:47 -35.35257 -64.07341 35267 ft 406 kts 183°
2026-05-09 14:48 -35.40898 -64.08146 35282 ft 412 kts 189°
2026-05-09 14:48 -35.46617 -64.09186 35281 ft 414 kts 185°
2026-05-09 14:49 -35.52348 -64.10100 35270 ft 417 kts 186°
2026-05-09 14:49 -35.58110 -64.10894 35274 ft 413 kts 185°
2026-05-09 14:50 -35.63803 -64.11767 35271 ft 411 kts 185°
2026-05-09 14:50 -35.69438 -64.12593 35279 ft 410 kts 186°
2026-05-09 14:51 -35.75116 -64.13642 35272 ft 414 kts 187°
2026-05-09 14:51 -35.80850 -64.14646 35277 ft 418 kts 186°
2026-05-09 14:52 -35.86596 -64.15422 35267 ft 413 kts 186°
2026-05-09 14:52 -35.92293 -64.16492 35285 ft 412 kts 185°
2026-05-09 14:53 -35.97976 -64.17315 35286 ft 410 kts 186°
2026-05-09 14:53 -36.03613 -64.18362 35302 ft 408 kts 187°
2026-05-09 14:54 -36.09239 -64.19331 35299 ft 409 kts 186°
2026-05-09 14:54 -36.14916 -64.20195 35288 ft 413 kts 186°
2026-05-09 14:55 -36.20601 -64.21086 35292 ft 411 kts 186°
2026-05-09 14:55 -36.26243 -64.21891 35322 ft 408 kts 185°
2026-05-09 14:56 -36.31860 -64.22931 35289 ft 409 kts 187°
2026-05-09 14:56 -36.37468 -64.23772 35304 ft 403 kts 187°
2026-05-09 14:57 -36.43046 -64.24774 35305 ft 405 kts 186°
2026-05-09 14:57 -36.48613 -64.25830 35316 ft 405 kts 186°
2026-05-09 14:58 -36.53274 -64.26497 35310 ft 407 kts 183°
2026-05-09 14:58 -36.58909 -64.27330 35341 ft 409 kts 185°
2026-05-09 14:59 -36.65475 -64.28259 35321 ft 410 kts 184°
2026-05-09 14:59 -36.70200 -64.28906 35316 ft 405 kts 185°
2026-05-09 15:00 -36.76661 -64.29616 35329 ft 397 kts 184°
2026-05-09 15:00 -36.81219 -64.30310 35330 ft 393 kts 184°
2026-05-09 15:01 -36.89466 -64.31255 35320 ft 402 kts 184°
2026-05-09 15:02 -36.95043 -64.32052 35323 ft 400 kts 184°
2026-05-09 15:02 -37.00577 -64.32848 35330 ft 400 kts 186°
2026-05-09 15:03 -37.06103 -64.33507 35341 ft 398 kts 182°
2026-05-09 15:03 -37.11646 -64.34189 35322 ft 401 kts 183°
2026-05-09 15:04 -37.17164 -64.35042 35321 ft 398 kts 184°
2026-05-09 15:06 -37.39080 -64.37844 35331 ft 395 kts 184°
2026-05-09 15:06 -37.44587 -64.38647 35318 ft 398 kts 184°
2026-05-09 15:07 -37.50070 -64.39373 35314 ft 400 kts 185°
2026-05-09 15:07 -37.55599 -64.40154 35319 ft 400 kts 184°
2026-05-09 15:08 -37.61088 -64.40903 35294 ft 396 kts 185°
2026-05-09 15:08 -37.69280 -64.42195 35300 ft 395 kts 185°
2026-05-09 15:10 -37.91191 -64.45113 35307 ft 395 kts 183°
2026-05-09 15:11 -37.96700 -64.46015 35320 ft 401 kts 185°
2026-05-09 15:11 -38.02263 -64.46759 35316 ft 401 kts 184°
2026-05-09 15:12 -38.07814 -64.47509 35311 ft 400 kts 184°
2026-05-09 15:12 -38.13306 -64.48292 35307 ft 398 kts 184°
2026-05-09 15:13 -38.18798 -64.49066 35299 ft 395 kts 184°
2026-05-09 15:13 -38.24247 -64.49834 35294 ft 392 kts 184°
2026-05-09 15:14 -38.29647 -64.50596 35290 ft 389 kts 184°
2026-05-09 15:14 -38.35024 -64.51357 35296 ft 387 kts 183°
2026-05-09 15:15 -38.40306 -64.52109 35308 ft 378 kts 181°
2026-05-09 15:15 -38.42875 -64.52479 35295 ft 365 kts 181°
2026-05-09 15:15 -38.45370 -64.52837 35295 ft 359 kts 181°
2026-05-09 15:16 -38.50349 -64.53539 35311 ft 360 kts 181°
2026-05-09 15:16 -38.55338 -64.54248 35310 ft 361 kts 181°
2026-05-09 15:17 -38.60350 -64.54963 35305 ft 362 kts 181°
2026-05-09 15:17 -38.65331 -64.55675 35302 ft 364 kts 181°
2026-05-09 15:18 -38.70374 -64.56395 35311 ft 364 kts 181°
2026-05-09 15:18 -38.75419 -64.57118 35300 ft 364 kts 181°
2026-05-09 15:19 -38.80453 -64.57838 35310 ft 364 kts 181°
2026-05-09 15:19 -38.85490 -64.58566 35313 ft 364 kts 181°
2026-05-09 15:20 -38.93033 -64.59644 35306 ft 363 kts 181°
2026-05-09 15:21 -38.98040 -64.60360 35307 ft 361 kts 181°
2026-05-09 15:21 -39.03032 -64.61073 35306 ft 361 kts 181°
2026-05-09 15:22 -39.08030 -64.61788 35266 ft 361 kts 181°
2026-05-09 15:22 -39.12975 -64.62501 35250 ft 360 kts 181°
2026-05-09 15:23 -39.17952 -64.63216 35259 ft 358 kts 181°
2026-05-09 15:23 -39.22901 -64.63929 35254 ft 358 kts 181°
2026-05-09 15:24 -39.27846 -64.64642 35251 ft 357 kts 181°
2026-05-09 15:24 -39.32775 -64.65355 35265 ft 356 kts 181°
2026-05-09 15:25 -39.37696 -64.66067 35262 ft 356 kts 181°
2026-05-09 15:25 -39.42620 -64.66785 35267 ft 356 kts 181°
2026-05-09 15:26 -39.50001 -64.67853 35245 ft 356 kts 181°
2026-05-09 15:26 -39.54918 -64.68568 35245 ft 356 kts 181°
2026-05-09 15:27 -39.59802 -64.69284 35255 ft 355 kts 182°
2026-05-09 15:27 -39.64714 -64.70003 35266 ft 355 kts 181°
2026-05-09 15:28 -39.69631 -64.70714 35251 ft 355 kts 182°
2026-05-09 15:28 -39.74548 -64.71430 35248 ft 355 kts 181°
2026-05-09 15:29 -39.79461 -64.72152 35249 ft 355 kts 182°
2026-05-09 15:29 -39.84343 -64.72867 35242 ft 355 kts 182°
2026-05-09 15:30 -39.89264 -64.73582 35261 ft 355 kts 182°
2026-05-09 15:30 -39.94183 -64.74292 35249 ft 355 kts 182°
2026-05-09 15:31 -39.99098 -64.75014 35242 ft 355 kts 182°
2026-05-09 15:31 -40.04012 -64.75728 35251 ft 355 kts 182°
2026-05-09 15:32 -40.08907 -64.76451 35244 ft 354 kts 182°
2026-05-09 15:32 -40.13771 -64.77167 35248 ft 354 kts 182°
2026-05-09 15:33 -40.18662 -64.77892 35238 ft 353 kts 182°
2026-05-09 15:33 -40.23559 -64.78617 35241 ft 353 kts 182°
2026-05-09 15:34 -40.28436 -64.79351 35242 ft 353 kts 182°
2026-05-09 15:34 -40.33313 -64.80068 35244 ft 353 kts 182°
2026-05-09 15:35 -40.38195 -64.80797 35238 ft 353 kts 182°